Skip Page Navigation
NASA JPL Caltech
NASA Logo - Jet Propulsion Laboratory + View the NASA Portal
+ Center for Near-Earth Object Studies
JPL Home Earth Solar System Stars & Galaxies Technology
JPL Solar System Dynamics
BODIES ORBITS EPHEMERIDES TOOLS PHYSICAL DATA DISCOVERY FAQ SITE MAP
JPL Small-Body Database Browser
Search: [ help ]  
227709 (2006 DB110)
Classification: Main-belt Asteroid          SPK-ID: 2227709
Ephemeris | Orbit Diagram | Orbital Elements | Mission Design | Physical Parameters | Discovery Circumstances | Close-Approach Data ]

[ show orbit diagram ]
Orbital Elements at Epoch 2459200.5 (2020-Dec-17.0) TDB
Reference: JPL 13 (heliocentric ecliptic J2000)
 Element Value Uncertainty (1-sigma)   Units 
e .1361052491325123 4.7754e-08  
a 3.11798034015044 2.9349e-08 au
q 2.693606849163989 1.5155e-07 au
i 10.30901074582327 6.956e-06 deg
node .7513133604447872 2.3264e-05 deg
peri 71.20922984024098 3.6565e-05 deg
M 342.45580353242 2.5007e-05 deg
tp 2459298.503021832028
(2021-Mar-25.00302183)
0.00013936 TDB
period 2010.983399822612
5.51
2.8394e-05
7.774e-08
d
yr
n .1790168929448922 2.5276e-09 deg/d
Q 3.542353831136892 3.3344e-08 au
  Orbit Determination Parameters
   # obs. used (total)      276  
   data-arc span      10335 days (28.30 yr)  
   first obs. used      1992-09-23  
   last obs. used      2021-01-09  
   planetary ephem.      DE441  
   SB-pert. ephem.      SB441-N16  
   condition code      0  
   norm. resid. RMS      .45885  
   source      ORB  
   producer      Otto Matic  
   solution date      2021-Apr-14 00:40:51  

Additional Information
 Earth MOID = 1.72913 au 
 Jupiter MOID = 1.85444 au 
 T_jup = 3.178 
[ show covariance matrix ]

Ephemeris | Orbit Diagram | Orbital Elements | Mission Design | Physical Parameters | Discovery Circumstances | Close-Approach Data ]

Physical Parameter Table
Parameter Symbol Value Units Sigma Reference Notes
absolute magnitude H 15.86   n/a E2021B55  

227709 (2006 DB110)          Discovered 2006-Feb-25 by Mt. Lemmon Survey at Mount Lemmon
Reference: 20091202/Numbers.arcLast Updated: 2009-12-04

[ show close-approach data ]
Ephemeris | Orbit Diagram | Orbital Elements | Mission Design | Physical Parameters | Discovery Circumstances | Close-Approach Data ]
ABOUT SSD CREDITS/AWARDS PRIVACY/COPYRIGHT GLOSSARY LINKS
FirstGov 2021-Apr-23 06:42 UT
(server date/time)  
NASA Home Page
Site Manager:   Ryan S. Park
Webmaster  Alan B. Chamberlin